EW1458 Weather Reports


Display with metric or nautical units.
time (UTC)temp
F
wind
direction
speed
MPH
gust
MPH
rain 1hr
in
rain 24hr
in
rain mn
in
humidity
%
barometer
mb
20260502130737 50 304 9.0 11.0 0.00 0.00 0.00 50 1012.8
20260502130236 50 222 4.0 8.0 0.00 0.00 0.00 52 1012.6
20260502123729 48 306 7.0 11.0 0.00 0.00 0.00 56 1012.9
20260502123228 48 278 6.0 11.0 0.00 0.00 0.00 57 1012.8
20260502122725 48 303 5.0 11.0 0.00 0.00 0.00 58 1013.0
20260502122219 47 284 6.0 15.0 0.00 0.00 0.00 60 1013.0
20260502121719 47 303 9.0 15.0 0.00 0.00 0.00 59 1013.0
20260502121217 47 299 5.0 11.0 0.00 0.00 0.00 61 1012.7
20260502120716 47 299 7.0 11.0 0.00 0.00 0.00 61 1012.9
20260502120219 46 313 4.0 11.0 0.00 0.00 0.00 62 1012.8
20260502115211 46 307 6.0 9.0 0.00 0.00 0.00 65 1012.8
20260502114710 46 305 9.0 9.0 0.00 0.00 0.00 64 1012.6
20260502114207 46 302 8.0 9.0 0.00 0.00 0.00 64 1012.6
20260502113701 46 293 5.0 10.0 0.00 0.00 0.00 66 1012.7
20260502113201 45 302 7.0 13.0 0.00 0.00 0.00 65 1012.5
20260502112657 45 301 4.0 13.0 0.00 0.00 0.00 67 1012.5
20260502112154 45 299 5.0 12.0 0.00 0.00 0.00 67 1012.5
20260502111652 45 306 7.0 12.0 0.00 0.00 0.00 69 1012.5
20260502111151 44 263 5.0 10.0 0.00 0.00 0.00 68 1012.7
20260502110138 44 248 4.0 11.0 0.00 0.00 0.00 70 1012.3
20260502105139 44 285 3.0 7.0 0.00 0.00 0.00 73 1012.2
20260502104637 43 230 2.0 7.0 0.00 0.00 0.00 74 1012.3
20260502104137 43 272 5.0 7.0 0.00 0.00 0.00 74 1012.0
20260502103136 42 317 3.0 6.0 0.00 0.00 0.00 77 1011.9
20260502102635 42 263 5.0 6.0 0.00 0.00 0.00 77 1012.0
20260502102124 42 282 4.0 6.0 0.00 0.00 0.00 78 1011.9
20260502100620 41 257 3.0 6.0 0.00 0.00 0.00 80 1011.8
20260502100119 41 272 4.0 6.0 0.00 0.00 0.00 80 1011.6
20260502091131 40 269 2.0 5.0 0.00 0.00 0.00 83 1011.2
20260502090618 40 256 3.0 8.0 0.00 0.00 0.00 83 1011.2
20260502090119 40 270 3.0 9.0 0.00 0.00 0.00 84 1011.0
20260502080110 40 214 2.0 4.0 0.00 0.01 0.00 87 1010.3
20260502070606 42 256 3.0 5.0 0.00 0.02 0.00 86 1009.6
20260502070107 42 222 2.0 7.0 0.00 0.02 0.00 85 1009.7
20260502065105 42 247 2.0 6.0 0.00 0.03 0.00 85 1009.6
20260502064605 42 280 2.0 6.0 0.00 0.03 0.00 83 1009.6
20260502064105 43 233 3.0 6.0 0.00 0.03 0.00 84 1009.6
20260502063604 43 242 4.0 5.0 0.00 0.03 0.00 84 1009.4
20260502063117 43 279 1.0 6.0 0.00 0.03 0.00 83 1009.4
20260502062604 43 258 2.0 7.0 0.00 0.05 0.00 83 1009.3
20260502061116 44 232 3.0 8.0 0.00 0.18 0.00 83 1009.0
20260502060100 44 250 3.0 8.0 0.00 0.23 0.00 83 1009.0
20260502055558 44 243 4.0 7.0 0.00 0.23 0.00 83 1009.0
20260502055055 44 232 4.0 7.0 0.00 0.23 0.00 84 1008.9
20260502054054 44 288 4.0 11.0 0.00 0.24 0.00 85 1008.8
20260502053552 44 259 4.0 9.0 0.00 0.25 0.00 86 1008.9
20260502052548 44 233 4.0 5.0 0.00 0.26 0.00 86 1008.8
20260502051548 44 258 4.0 6.0 0.00 0.26 0.00 87 1008.8
20260502051102 44 265 2.0 5.0 0.00 0.26 0.00 87 1008.9
20260502050601 45 277 4.0 6.0 0.00 0.26 0.00 86 1008.7
20260502050100 45 236 3.0 6.0 0.00 0.26 0.00 87 1008.6
20260502045547 45 239 4.0 5.0 0.00 0.26 0.00 86 1008.6
20260502044548 45 264 1.0 5.0 0.00 0.26 0.00 86 1008.5
20260502044046 46 208 4.0 8.0 0.00 0.27 0.00 85 1008.5
20260502043044 46 224 4.0 8.0 0.00 0.28 0.00 85 1008.4
20260502042544 46 231 3.0 7.0 0.00 0.31 0.00 85 1008.4
20260502042055 46 228 2.0 7.0 0.00 0.34 0.00 85 1008.3
20260502041542 47 264 2.0 6.0 0.00 0.34 0.00 84 1008.2
20260502041042 47 230 1.0 9.0 0.00 0.34 0.00 83 1008.1
20260502040541 47 250 4.0 12.0 0.00 0.34 0.00 82 1008.2
20260502035036 47 251 3.0 6.0 0.00 0.34 0.00 83 1008.0
20260502034536 47 220 2.0 6.0 0.00 0.34 0.00 83 1007.7
20260502034035 47 251 4.0 5.0 0.00 0.34 0.00 83 1008.0
20260502033534 47 248 4.0 5.0 0.00 0.34 0.00 83 1008.0
20260502032533 48 207 1.0 8.0 0.00 0.34 0.00 83 1008.0
20260502031532 48 251 5.0 9.0 0.00 0.34 0.00 82 1007.7
20260502031030 48 263 0.0 4.0 0.00 0.34 0.00 83 1007.6
20260502030530 48 189 0.0 4.0 0.00 0.34 0.00 83 1007.7
20260502030029 48 188 3.0 5.0 0.00 0.34 0.00 83 1007.4
20260502025530 48 167 2.0 9.0 0.00 0.34 0.34 82 1007.5
20260502024527 48 208 3.0 7.0 0.00 0.34 0.34 82 1007.6
20260502024028 48 261 2.0 10.0 0.00 0.34 0.34 82 1007.8
20260502023522 48 250 4.0 10.0 0.00 0.34 0.34 81 1007.5
20260502023023 48 254 6.0 10.0 0.00 0.34 0.34 81 1007.6
20260502022524 48 239 5.0 9.0 0.00 0.34 0.34 81 1007.5
20260502022019 48 264 6.0 10.0 0.00 0.34 0.34 81 1007.3
20260502021520 48 238 7.0 10.0 0.00 0.34 0.34 80 1007.3
20260502020012 48 246 4.0 11.0 0.00 0.34 0.34 80 1007.1
20260502015512 48 240 7.0 11.0 0.00 0.34 0.34 80 1006.8
20260502015009 48 251 7.0 11.0 0.00 0.34 0.34 80 1007.0
20260502014508 49 220 8.0 13.0 0.00 0.34 0.34 80 1006.8
20260502014006 49 213 9.0 13.0 0.00 0.34 0.34 80 1006.8
20260502013506 49 257 3.0 9.0 0.00 0.34 0.34 80 1006.8
20260502013018 49 249 2.0 9.0 0.00 0.34 0.34 80 1006.6
20260502012502 49 238 5.0 11.0 0.00 0.34 0.34 80 1006.6
20260502011953 49 244 6.0 11.0 0.00 0.34 0.34 79 1006.6
20260502011453 49 246 5.0 11.0 0.00 0.34 0.34 80 1006.5
20260502010951 49 239 5.0 11.0 0.00 0.34 0.34 80 1006.3
20260502010502 49 227 6.0 11.0 0.00 0.34 0.34 79 1006.3
20260502005948 49 236 7.0 12.0 0.00 0.34 0.34 79 1006.2
20260502005448 49 246 5.0 12.0 0.00 0.34 0.34 78 1006.2
20260502004944 49 230 6.0 11.0 0.00 0.34 0.34 78 1006.2
20260502004448 50 247 7.0 11.0 0.00 0.34 0.34 78 1006.0
20260502003944 50 243 6.0 11.0 0.00 0.34 0.34 77 1006.2
20260502003446 50 246 8.0 11.0 0.00 0.34 0.34 77 1005.9
20260502002943 50 276 5.0 11.0 0.00 0.34 0.34 77 1005.9
20260502001937 50 252 6.0 14.0 0.00 0.34 0.34 77 1005.6
20260502001436 50 248 5.0 13.0 0.00 0.34 0.34 77 1005.6
20260502000934 51 232 10.0 13.0 0.00 0.34 0.34 76 1005.2
20260501235931 51 239 6.0 11.0 0.00 0.34 0.34 77 1005.4
20260501235432 51 238 4.0 14.0 0.00 0.34 0.34 77 1005.3
20260501234930 51 240 6.0 14.0 0.00 0.34 0.34 77 1005.3
20260501234430 51 241 7.0 11.0 0.00 0.36 0.34 77 1005.1
20260501233928 51 220 8.0 10.0 0.00 0.36 0.34 78 1005.0
20260501233429 52 231 5.0 13.0 0.00 0.36 0.34 78 1004.9
20260501232923 52 262 7.0 13.0 0.00 0.37 0.34 77 1004.9
20260501232424 52 242 5.0 11.0 0.00 0.38 0.34 78 1004.8
20260501231918 52 262 6.0 13.0 0.00 0.41 0.34 78 1004.6
20260501231418 52 246 6.0 13.0 0.00 0.42 0.34 78 1004.6
20260501230417 53 246 6.0 15.0 0.00 0.43 0.34 79 1004.5
20260501225912 53 271 6.0 16.0 0.00 0.43 0.34 79 1004.5
20260501225413 53 218 7.0 16.0 0.00 0.43 0.34 79 1004.5
20260501224912 53 239 5.0 12.0 0.00 0.44 0.34 79 1004.4
20260501224412 53 246 6.0 13.0 0.00 0.44 0.34 79 1004.3
20260501223911 54 247 5.0 13.0 0.00 0.44 0.34 79 1004.3
20260501223411 54 243 8.0 14.0 0.00 0.44 0.34 79 1004.1
20260501222911 54 249 8.0 15.0 0.00 0.44 0.34 79 1004.0
20260501222410 54 213 14.0 15.0 0.00 0.44 0.34 79 1003.9
20260501221409 55 240 6.0 12.0 0.00 0.44 0.34 78 1003.9
20260501220906 55 233 6.0 9.0 0.00 0.44 0.34 78 1004.0
20260501220405 55 288 2.0 6.0 0.00 0.44 0.34 78 1003.9
20260501214905 55 299 5.0 9.0 0.00 0.44 0.34 77 1003.9
20260501214404 55 248 3.0 9.0 0.00 0.44 0.34 77 1003.8
20260501213903 55 272 3.0 8.0 0.00 0.44 0.34 77 1003.6
20260501212903 55 220 2.0 6.0 0.00 0.44 0.34 77 1003.9
20260501211357 54 294 1.0 12.0 0.00 0.44 0.34 78 1003.9
20260501210858 54 274 4.0 13.0 0.00 0.44 0.34 78 1003.8
20260501210358 54 237 6.0 13.0 0.00 0.44 0.34 78 1003.9
20260501205858 55 240 8.0 11.0 0.00 0.44 0.34 76 1003.9
20260501205358 55 236 3.0 12.0 0.00 0.44 0.34 78 1003.8
20260501204858 55 238 6.0 12.0 0.00 0.44 0.34 78 1003.6
20260501204357 55 242 6.0 11.0 0.00 0.44 0.34 77 1004.0
20260501203857 55 254 5.0 11.0 0.00 0.44 0.34 77 1003.8
20260501203357 55 180 3.0 13.0 0.00 0.44 0.34 77 1003.6
20260501202859 55 243 4.0 13.0 0.00 0.44 0.34 76 1003.6
20260501202356 55 169 2.0 11.0 0.00 0.44 0.34 76 1003.7
20260501201855 55 225 6.0 12.0 0.00 0.44 0.34 75 1003.7
20260501200854 55 277 10.0 16.0 0.00 0.44 0.34 76 1003.7
20260501200354 55 261 9.0 14.0 0.00 0.44 0.34 77 1003.8
20260501195853 55 264 4.0 18.0 0.00 0.44 0.34 78 1003.7
20260501195352 55 253 4.0 18.0 0.00 0.44 0.34 78 1003.8
20260501194852 55 265 8.0 14.0 0.00 0.44 0.34 77 1003.6
20260501194351 56 243 9.0 19.0 0.00 0.44 0.34 75 1003.5
20260501193851 56 299 9.0 19.0 0.00 0.44 0.34 75 1003.6
20260501193352 56 258 7.0 20.0 0.00 0.44 0.34 77 1003.4
20260501192851 56 292 11.0 20.0 0.00 0.44 0.34 75 1003.4
20260501192351 57 297 11.0 17.0 0.00 0.44 0.34 73 1003.2
20260501191850 58 272 10.0 13.0 0.00 0.44 0.34 72 1003.3
20260501191351 58 288 4.0 17.0 0.00 0.44 0.34 73 1003.3
20260501190851 57 302 9.0 17.0 0.00 0.44 0.34 76 1003.2
20260501190351 57 266 11.0 13.0 0.00 0.44 0.34 77 1003.4
20260501185850 56 280 4.0 13.0 0.00 0.44 0.34 78 1003.6
20260501185348 55 303 11.0 14.0 0.00 0.44 0.34 81 1003.4
20260501184848 55 299 10.0 14.0 0.00 0.44 0.34 81 1003.4
20260501184348 55 297 11.0 13.0 0.00 0.44 0.34 80 1003.4
20260501183849 56 300 6.0 12.0 0.00 0.44 0.34 79 1003.4
20260501182848 56 295 8.0 12.0 0.00 0.44 0.34 80 1003.4
20260501182348 56 298 8.0 10.0 0.00 0.44 0.34 79 1003.4
20260501181845 56 226 2.0 12.0 0.00 0.44 0.34 81 1003.4
20260501181344 56 299 9.0 12.0 0.00 0.44 0.34 81 1003.5
20260501175343 55 301 6.0 7.0 0.00 0.44 0.34 84 1003.5
20260501174841 55 294 3.0 7.0 0.00 0.44 0.34 85 1003.6
20260501174340 53 293 3.0 8.0 0.00 0.44 0.34 86 1003.6
20260501173840 53 301 4.0 8.0 0.00 0.44 0.34 85 1003.5
20260501173338 53 294 8.0 10.0 0.00 0.44 0.34 86 1003.8
20260501172838 54 297 8.0 10.0 0.00 0.44 0.34 85 1003.5
20260501172336 53 294 3.0 9.0 0.00 0.44 0.34 86 1003.6
20260501171332 53 254 3.0 6.0 0.00 0.44 0.34 89 1003.9
20260501170330 52 297 5.0 10.0 0.00 0.44 0.34 88 1003.8
20260501165829 53 287 4.0 11.0 0.00 0.44 0.34 87 1003.9
20260501164829 53 211 3.0 7.0 0.00 0.44 0.34 89 1003.5
20260501164330 53 243 3.0 7.0 0.00 0.44 0.34 87 1003.4
20260501163826 54 300 2.0 9.0 0.00 0.44 0.34 86 1003.6
20260501163324 54 290 4.0 10.0 0.00 0.44 0.34 86 1003.6
20260501162823 55 270 4.0 11.0 0.00 0.44 0.34 85 1003.3
20260501162322 55 58 2.0 11.0 0.00 0.44 0.34 86 1003.2
20260501161823 56 296 6.0 10.0 0.00 0.44 0.34 86 1003.3
20260501161322 56 299 4.0 10.0 0.00 0.44 0.34 85 1003.2
20260501160823 56 279 3.0 6.0 0.00 0.44 0.34 85 1003.2
20260501160322 56 293 6.0 6.0 0.00 0.44 0.34 84 1003.4
20260501155820 58 230 2.0 6.0 0.00 0.44 0.34 83 1003.2
20260501155320 57 115 2.0 6.0 0.00 0.44 0.34 84 1003.3
20260501154318 57 178 5.0 5.0 0.00 0.44 0.34 84 1003.5
20260501153316 57 110 4.0 6.0 0.00 0.44 0.34 84 1003.2
20260501152315 56 92 4.0 6.0 0.00 0.44 0.34 84 1003.4
20260501151807 56 125 3.0 7.0 0.00 0.44 0.34 84 1003.5
20260501150807 57 98 5.0 9.0 0.00 0.44 0.34 85 1003.5
20260501150319 57 120 4.0 7.0 0.00 0.44 0.34 84 1003.6
20260501145804 57 186 2.0 6.0 0.00 0.44 0.34 85 1003.4
20260501144802 56 127 2.0 6.0 0.00 0.44 0.34 86 1003.4
20260501144302 56 149 2.0 5.0 0.00 0.44 0.34 85 1003.4
20260501143803 56 133 3.0 6.0 0.00 0.44 0.34 85 1003.6
20260501143302 56 119 2.0 6.0 0.00 0.44 0.34 85 1003.8
20260501142802 56 209 0.0 7.0 0.00 0.44 0.34 85 1003.6
20260501142305 56 146 4.0 7.0 0.00 0.44 0.34 83 1003.5
20260501141803 56 96 4.0 5.0 0.00 0.44 0.34 84 1003.5
20260501141302 56 141 0.0 7.0 0.00 0.44 0.34 85 1003.5
20260501140800 55 105 3.0 7.0 0.00 0.44 0.34 85 1003.6
20260501140300 55 125 3.0 7.0 0.00 0.44 0.34 86 1003.7
20260501135800 55 86 4.0 6.0 0.00 0.44 0.34 87 1003.6
20260501135331 55 262 4.0 7.0 0.00 0.44 0.34 87 1003.8
20260501134800 55 164 6.0 13.0 0.00 0.44 0.34 87 1003.9
20260501134300 55 83 8.0 13.0 0.00 0.44 0.34 85 1003.9
20260501133800 55 103 4.0 9.0 0.00 0.44 0.34 86 1003.8